LEBLLEMH

Guest
Details From LEBL - Barcelona El Prat
To LEMH - Menorca
Flight Number -
Tags Decoded
Created
Modified
Stats Distance 139 nm / 257 km
Max Altitude 0 ft / 0 m
Waypoints 4
Social Downloads 16
Likes 0
Share VATSIM

Download

Looking for another format? Having issues loading an existing format? Contact us
Advertisement - Login to hide

Notes

Decoded

Route

LEBL DUNES SARGO LEMH

ID Type Via Altitude Latitude Longitude Leg Dist Tot Dist Heading (true) Name
O LEBL APT - 0 ft / 0 m 41.28777˚ 2.08484˚ - 0 nm - -
DUNES FIX - 0 ft / 0 m 40.86376˚ 3.15756˚ 54 nm 54 nm 117° / 118° -
SARGO FIX - 0 ft / 0 m 40.50000˚ 3.99231˚ 43 nm 98 nm 120° / 120° -
O LEMH APT - 0 ft / 0 m 39.85339˚ 4.21914˚ 40 nm 138 nm 165° / 165° -

Altitude Profile

Advertisement - Login to hide

LEBL

Details ICAO LEBL (BCN)
Name Barcelona - El Prat
Region Spain
Timezone Europe/Madrid (UTC+2.0)
Stats Elevation 14 ft / 4 m (AMSL)
Location 41.295108° 2.088030°
Runways 3
Magnetic Variation 0.869° E

METAR

LEBL 230900Z 20006KT 160V220 9999 FEW020 20/17 Q1017 NOSIG

Decode

TAF

TAF LEBL 230500Z 2306/2406 33007KT 9999 FEW020 TX24/2312Z TN15/2306Z BECMG 2308/2310 20012KT BECMG 2318/2320 VRB04KT

Decode

Departure Runways

ID Width Length Bearing (true) Bearing (mag) Surface Threshold Offset Overrun Length
02 148 ft / 45 m 8,343 ft / 2,543 m 18.93° 18.06° Asphalt 0 ft / 0 m 348 ft / 106 m
07L 197 ft / 60 m 10,983 ft / 3,348 m 65.49° 64.62° Asphalt 1,411 ft / 430 m 1,161 ft / 354 m
07R 197 ft / 60 m 8,718 ft / 2,657 m 65.49° 64.62° Asphalt 0 ft / 0 m 207 ft / 63 m
20 148 ft / 45 m 8,343 ft / 2,543 m 198.93° 198.06° Asphalt 0 ft / 0 m 200 ft / 61 m
25L 197 ft / 60 m 8,718 ft / 2,657 m 245.51° 244.64° Asphalt 0 ft / 0 m 203 ft / 62 m
25R 197 ft / 60 m 10,983 ft / 3,348 m 245.51° 244.64° Asphalt 0 ft / 0 m 522 ft / 159 m

LEMH

Details ICAO LEMH (MAH)
Name Menorca
Region Spain
Timezone Europe/Madrid (UTC+2.0)
Stats Elevation 298 ft / 91 m (AMSL)
Location 39.862221° 4.219762°
Runways 2
Magnetic Variation 1.372° E

METAR

LEMH 230900Z 24006KT 180V290 9999 FEW014 20/17 Q1018

Decode

TAF

TAF LEMH 230800Z 2309/2409 22007KT 9999 FEW020 TX23/2312Z TN16/2406Z BECMG 2314/2316 16007KT BECMG 2318/2320 VRB04KT

Decode

Destination Runways

ID Width Length Bearing (true) Bearing (mag) Surface Threshold Offset Overrun Length
01L 148 ft / 45 m 7,723 ft / 2,354 m 8.97° 7.60° Asphalt 0 ft / 0 m 164 ft / 50 m
01R 148 ft / 45 m 6,903 ft / 2,104 m 8.97° 7.60° Asphalt 0 ft / 0 m 0 ft / 0 m
19L 148 ft / 45 m 6,903 ft / 2,104 m 188.97° 187.60° Asphalt 0 ft / 0 m 0 ft / 0 m
19R 148 ft / 45 m 7,723 ft / 2,354 m 188.97° 187.60° Asphalt 0 ft / 0 m 164 ft / 50 m

Approach Navaids

Runway Type Ident Frequency Range Bearing (true) Bearing (mag) Slope Elevation
01L Localiser IMH 110.30 MHz 18 nm / 33 km 8.97° 7.60° - 298 ft / 91 m (AMSL)
01L Glidescope IMH 110.30 MHz 10 nm / 19 km 8.97° 7.60° 3.00° 298 ft / 91 m (AMSL)
01L DME IMH 110.30 MHz 18 nm / 33 km - - - 298 ft / 91 m (AMSL)

Popular Alternatives